User: anonymous   Login
Location: Unspecified
(0.0000°N, 0.0000°E)
Time: 13:04:14
(UTC+00:00)
Language:

Oscar 19 - Orbit

View from above orbital plane
View from above orbital plane
View from above satellite
View from above satellite

Ground track
Ground track

The orbit data is extracted from the following two-line orbital elements,

1 20442U 90005G   21015.57172523 -.00000003  00000-0  15288-4 0  9999
2 20442  98.7215 329.8237 0010706 249.2642 110.7395 14.32973339618930
Epoch (UTC): 15 January 2021 13:43:17
Eccentricity: 0.0010706
inclination: 98.7215°
perigee height: 774 km
apogee height: 789 km
right ascension of ascending node: 329.8237°
argument of perigee: 249.2642°
revolutions per day: 14.32973339
mean anomaly at epoch: 110.7395°
orbit number at epoch: 61893

The dashed part of the orbit path shows where the satellite is in the earth's shadow,  

DLR